• In Hungary
  • List of Countries
  • For 7 days
  • Water Temperature
  • Satellite Maps
  • Weather Map
  • News
  • Weather Widgets
  • user-avatar
    Login

    Hourly Weather Salzburg

    Today, 21 November, Tuesday

    Time Temperature Precipitation Wind Pressure Humidity
    00:00 -4°C° 0.6 mm 2 mps 624 mmHg 93%
    01:00 -4°C° 0 mm 2 mps 623 mmHg 91%
    02:00 -3°C° 0.6 mm 2 mps 623 mmHg 92%
    03:00 -3°C° 0.6 mm 2 mps 623 mmHg 93%
    04:00 -3°C° 0.6 mm 2 mps 624 mmHg 94%
    05:00 -3°C° 0.6 mm 2 mps 624 mmHg 94%
    06:00 -3°C° 0.6 mm 2 mps 624 mmHg 94%
    07:00 -3°C° 0.6 mm 2 mps 624 mmHg 95%
    08:00 -2°C° 0.6 mm 2 mps 624 mmHg 94%
    09:00 -2°C° 0.6 mm 2 mps 624 mmHg 94%
    10:00 -1°C° 0.6 mm 2 mps 624 mmHg 94%
    11:00 -1°C° 0.4 mm 2 mps 624 mmHg 94%
    12:00 +1°C° 0.4 mm 2 mps 624 mmHg 94%
    13:00 +1°C° 0.4 mm 2 mps 624 mmHg 94%
    14:00 +1°C° 0.7 mm 2 mps 624 mmHg 95%
    15:00 +2°C° 0.7 mm 1 mps 624 mmHg 95%
    16:00 +1°C° 0.7 mm 1 mps 624 mmHg 96%
    17:00 +1°C° 0.5 mm 1 mps 624 mmHg 96%
    18:00 -1°C° 0.5 mm 2 mps 624 mmHg 95%
    19:00 -1°C° 0.5 mm 2 mps 625 mmHg 95%
    20:00 -1°C° 0 mm 2 mps 624 mmHg 93%
    21:00 -2°C° 0 mm 2 mps 624 mmHg 92%
    22:00 -2°C° 0 mm 2 mps 624 mmHg 90%
    23:00 -2°C° 0 mm 2 mps 624 mmHg 89%

    Tomorrow, 22 November, Wednesday

    Time Temperature Precipitation Wind Pressure Humidity
    00:00 -3°C° 0 mm 2 mps 624 mmHg 88%
    01:00 -3°C° 0 mm 2 mps 624 mmHg 86%
    02:00 -3°C° 0 mm 2 mps 624 mmHg 85%
    03:00 -3°C° 0 mm 2 mps 624 mmHg 84%
    04:00 -3°C° 0 mm 2 mps 624 mmHg 82%
    05:00 -3°C° 0 mm 2 mps 624 mmHg 81%
    06:00 -4°C° 0 mm 2 mps 623 mmHg 80%
    07:00 -4°C° 0 mm 2 mps 623 mmHg 78%
    08:00 -2°C° 0 mm 2 mps 624 mmHg 79%
    09:00 +1°C° 0 mm 1 mps 624 mmHg 80%
    10:00 +3°C° 0 mm 1 mps 625 mmHg 81%
    11:00 +3°C° 0 mm 1 mps 625 mmHg 83%
    12:00 +4°C° 0 mm 1 mps 625 mmHg 85%
    13:00 +5°C° 0 mm 1 mps 625 mmHg 87%
    14:00 +4°C° 0 mm 1 mps 625 mmHg 86%
    15:00 +3°C° 0 mm 1 mps 624 mmHg 86%
    16:00 +2°C° 0 mm 1 mps 624 mmHg 85%
    17:00 +1°C° 0 mm 1 mps 624 mmHg 84%
    18:00 -2°C° 0 mm 2 mps 623 mmHg 82%
    19:00 -3°C° 0 mm 2 mps 623 mmHg 81%
    20:00 -3°C° 0 mm 2 mps 623 mmHg 80%
    21:00 -3°C° 0 mm 2 mps 623 mmHg 78%
    22:00 -4°C° 0 mm 2 mps 623 mmHg 77%
    23:00 -4°C° 0 mm 2 mps 623 mmHg 77%

    Day after tomorrow, 23 November, Thursday

    Time Temperature Precipitation Wind Pressure Humidity
    00:00 -4°C° 0 mm 2 mps 623 mmHg 77%
    01:00 -4°C° 0 mm 2 mps 623 mmHg 77%
    02:00 -4°C° 0 mm 2 mps 623 mmHg 77%
    03:00 -4°C° 0 mm 2 mps 622 mmHg 78%
    04:00 -4°C° 0 mm 2 mps 622 mmHg 78%
    05:00 -4°C° 0 mm 2 mps 623 mmHg 78%
    06:00 -4°C° 0 mm 2 mps 623 mmHg 78%
    07:00 -4°C° 0 mm 2 mps 623 mmHg 78%
    08:00 -3°C° 0 mm 2 mps 624 mmHg 79%
    09:00 +1°C° 0 mm 1 mps 624 mmHg 79%
    10:00 +2°C° 0 mm 1 mps 625 mmHg 80%
    11:00 +3°C° 0 mm 1 mps 625 mmHg 81%
    12:00 +4°C° 0 mm 1 mps 626 mmHg 83%
    13:00 +5°C° 0 mm 1 mps 626 mmHg 84%
    14:00 +4°C° 0 mm 1 mps 626 mmHg 82%
    15:00 +3°C° 0 mm 1 mps 626 mmHg 80%
    16:00 +2°C° 0 mm 1 mps 626 mmHg 77%
    17:00 +1°C° 0 mm 1 mps 626 mmHg 74%
    18:00 -2°C° 0 mm 2 mps 626 mmHg 71%
    19:00 -2°C° 0 mm 2 mps 626 mmHg 68%
    20:00 -2°C° 0 mm 2 mps 626 mmHg 68%
    21:00 -2°C° 0 mm 2 mps 627 mmHg 68%
    22:00 -3°C° 0 mm 2 mps 627 mmHg 68%
    23:00 -3°C° 0 mm 2 mps 627 mmHg 68%

    24 November, Friday

    Time Temperature Precipitation Wind Pressure Humidity
    00:00 -3°C° 0 mm 2 mps 627 mmHg 69%
    01:00 -1°C° 0 mm 1 mps 627 mmHg 70%
    02:00 -3°C° 0 mm 2 mps 627 mmHg 70%
    03:00 -3°C° 0 mm 2 mps 627 mmHg 70%
    04:00 -3°C° 0 mm 2 mps 626 mmHg 70%
    05:00 -3°C° 0 mm 2 mps 626 mmHg 70%
    06:00 -3°C° 0 mm 2 mps 626 mmHg 70%
    07:00 -3°C° 0 mm 2 mps 626 mmHg 70%
    08:00 -2°C° 0 mm 2 mps 627 mmHg 70%
    09:00 -1°C° 0 mm 2 mps 627 mmHg 71%
    10:00 +2°C° 0 mm 2 mps 628 mmHg 71%
    11:00 +3°C° 0 mm 2 mps 627 mmHg 73%
    12:00 +4°C° 0 mm 2 mps 627 mmHg 75%
    13:00 +4°C° 0 mm 2 mps 627 mmHg 77%
    14:00 +3°C° 0 mm 2 mps 627 mmHg 78%
    15:00 +2°C° 0 mm 2 mps 626 mmHg 79%
    16:00 +1°C° 0 mm 2 mps 626 mmHg 81%
    17:00 -1°C° 0 mm 2 mps 626 mmHg 79%
    18:00 -2°C° 0 mm 2 mps 626 mmHg 77%
    19:00 -3°C° 0 mm 2 mps 626 mmHg 76%
    20:00 -3°C° 0 mm 2 mps 626 mmHg 74%
    21:00 -3°C° 0 mm 2 mps 626 mmHg 72%
    22:00 -3°C° 0 mm 2 mps 626 mmHg 70%
    23:00 -3°C° 0 mm 2 mps 626 mmHg 69%

    25 November, Saturday

    Time Temperature Precipitation Wind Pressure Humidity
    00:00 -3°C° 0 mm 2 mps 626 mmHg 68%
    01:00 -3°C° 0 mm 2 mps 626 mmHg 67%
    02:00 -3°C° 0 mm 2 mps 626 mmHg 68%
    03:00 -3°C° 0 mm 2 mps 625 mmHg 68%
    04:00 -3°C° 0 mm 2 mps 625 mmHg 68%
    05:00 -3°C° 0 mm 2 mps 625 mmHg 69%
    06:00 -3°C° 0 mm 2 mps 625 mmHg 70%
    07:00 -3°C° 0 mm 2 mps 625 mmHg 70%
    08:00 -2°C° 0 mm 2 mps 625 mmHg 71%
    09:00 -1°C° 0 mm 2 mps 625 mmHg 72%
    10:00 +1°C° 0 mm 2 mps 625 mmHg 73%
    11:00 +2°C° 0 mm 2 mps 625 mmHg 75%
    12:00 +3°C° 0 mm 2 mps 625 mmHg 77%
    13:00 +4°C° 0 mm 2 mps 624 mmHg 79%
    14:00 +3°C° 0 mm 2 mps 624 mmHg 83%
    15:00 +2°C° 0 mm 2 mps 623 mmHg 86%
    16:00 +1°C° 0 mm 2 mps 623 mmHg 89%
    17:00 +1°C° 0 mm 2 mps 623 mmHg 90%
    18:00 -1°C° 0 mm 2 mps 624 mmHg 90%
    19:00 -2°C° 0 mm 2 mps 624 mmHg 91%
    20:00 +1°C° 0.1 mm 1 mps 625 mmHg 92%
    21:00 +1°C° 0.1 mm 1 mps 625 mmHg 93%
    22:00 +1°C° 0.1 mm 1 mps 626 mmHg 93%
    23:00 0°C° 0.5 mm 1 mps 626 mmHg 94%

    26 November, Sunday

    Time Temperature Precipitation Wind Pressure Humidity
    00:00 -2°C° 0.5 mm 2 mps 627 mmHg 94%
    01:00 -2°C° 0.5 mm 2 mps 627 mmHg 94%
    02:00 -2°C° 0.5 mm 2 mps 627 mmHg 95%
    03:00 -3°C° 0.5 mm 2 mps 627 mmHg 95%
    04:00 -1°C° 0.5 mm 1 mps 627 mmHg 95%
    05:00 -1°C° 0.5 mm 1 mps 627 mmHg 95%
    06:00 -1°C° 0.5 mm 1 mps 627 mmHg 95%
    07:00 -1°C° 0.5 mm 1 mps 627 mmHg 95%
    08:00 -4°C° 0.7 mm 2 mps 628 mmHg 93%
    09:00 -4°C° 0.7 mm 2 mps 628 mmHg 92%
    10:00 -4°C° 0.7 mm 2 mps 628 mmHg 91%
    11:00 -4°C° 0.5 mm 2 mps 628 mmHg 90%
    12:00 -4°C° 0.5 mm 2 mps 628 mmHg 90%
    13:00 -5°C° 0.5 mm 3 mps 628 mmHg 89%
    14:00 -5°C° 0.7 mm 2 mps 628 mmHg 89%
    15:00 -5°C° 0.7 mm 2 mps 629 mmHg 90%
    16:00 -6°C° 0.7 mm 2 mps 629 mmHg 91%
    17:00 -7°C° 0.1 mm 2 mps 629 mmHg 91%
    18:00 -8°C° 0.1 mm 2 mps 629 mmHg 92%
    19:00 -8°C° 0.1 mm 2 mps 630 mmHg 92%
    20:00 -8°C° 0 mm 1 mps 630 mmHg 92%
    21:00 -8°C° 0 mm 1 mps 630 mmHg 92%
    22:00 -9°C° 0 mm 1 mps 630 mmHg 92%
    23:00 -9°C° 0 mm 1 mps 630 mmHg 91%
    Show more